Temperature
7 7 7 7 8 8 9 9 8 8 8 8 8 8 8 9 9 8 8 8 8 8 8 7 7 7 6 6 5 5 5 4 4 3 3 2 1 1
7 7 7 7 8 8 8 8 9 9 8 8 8 8 9 8 8 8 8 8 8 8 7 7 7 6 6 5 5 5 4 4 3 3 2 2 1 1
6 6 7 7 7 8 8 8 8 8 8 8 8 8 8 8 8 8 8 7 7 7 7 7 6 6 6 5 5 4 4 3 3 2 2 1 1 0
6 6 7 7 7 7 8 8 8 8 9 8 8 8 8 8 8 8 8 7 7 7 7 6 6 6 5 5 4 4 3 3 3 2 1 1 1 0
6 6 6 7 7 7 7 8 8 8 8 8 8 8 8 8 8 7 7 7 7 6 6 6 5 5 5 4 4 3 3 3 2 2 1 1 0 -0
6 6 6 6 7 7 7 7 8 8 8 8 8 7 7 7 7 7 7 7 6 6 6 5 5 5 4 4 4 3 3 2 2 1 1 0 -0 -1
6 6 6 6 7 7 7 7 7 8 8 8 7 7 7 7 7 7 7 6 6 6 5 5 5 4 4 3 3 3 2 2 1 1 0 -0 -1 -1
5 6 6 6 7 7 7 7 8 8 8 8 7 7 7 7 7 7 6 6 5 5 5 5 4 4 4 3 3 2 2 1 1 0 -0 -0 -1 -1
5 6 6 6 7 7 7 7 7 7 8 8 8 8 8 7 7 6 6 6 5 5 5 4 4 4 3 3 2 2 1 1 0 0 -0 -1 -1 -1
5 6 6 6 6 7 7 7 7 7 7 8 8 8 8 7 7 7 6 5 5 5 4 4 4 3 3 2 2 1 1 1 0 -0 -1 -1 -2 -2
5 6 6 6 6 6 6 6 7 7 7 7 7 7 7 7 6 6 5 5 4 4 4 3 3 3 2 2 1 1 0 0 -0 -1 -1 -1 -2 -2
5 5 6 6 6 6 7 7 6 6 6 6 6 6 6 6 6 5 5 5 4 4 3 3 3 2 2 1 1 0 -0 -0 -1 -1 -1 -2 -2 -2
5 5 5 6 6 6 6 7 7 6 6 6 6 6 5 5 5 5 5 4 4 4 4 3 2 2 1 1 1 -0 -1 -1 -1 -1 -2 -2 -3 -3
5 5 5 6 6 6 6 6 6 6 6 6 5 5 5 5 5 4 4 4 4 4 4 3 2 2 1 1 0 -1 -1 -1 -2 -2 -2 -3 -3 -3
5 5 5 5 6 6 6 6 6 6 6 5 5 5 5 5 4 4 3 3 3 3 3 3 2 2 1 1 -0 -1 -1 -2 -2 -2 -3 -3 -3 -4
5 5 5 5 5 5 5 5 5 5 5 5 5 4 4 4 4 4 3 3 3 3 2 2 1 1 1 0 -0 -1 -2 -2 -2 -3 -3 -3 -4 -4
4 4 4 4 5 4 5 5 5 5 4 4 4 4 4 3 3 3 3 3 3 2 2 1 1 1 0 -0 -1 -1 -2 -2 -3 -3 -3 -4 -4 -5
4 4 4 4 4 4 4 4 4 4 4 4 4 4 4 3 3 3 3 2 2 2 1 1 1 0 -0 -1 -2 -2 -2 -3 -3 -3 -4 -4 -4 -5
3 3 4 4 4 4 4 4 4 4 4 4 4 4 3 3 3 2 2 2 2 1 1 0 0 -0 -1 -1 -2 -3 -3 -3 -3 -4 -4 -4 -5 -5
3 3 3 4 4 4 4 4 4 3 3 3 3 3 3 3 3 2 2 2 1 1 0 -0 -0 -1 -1 -1 -2 -3 -3 -3 -4 -4 -4 -4 -5 -5
3 3 3 4 4 4 4 4 4 3 3 3 3 3 3 3 2 2 2 1 1 1 -0 -0 -1 -1 -1 -2 -2 -3 -3 -4 -4 -4 -5 -5 -5 -5
3 3 3 3 4 4 4 4 3 3 3 3 3 3 3 2 2 2 2 1 1 0 -0 -1 -1 -2 -2 -2 -2 -3 -3 -4 -4 -5 -5 -5 -5 -6
2 3 3 3 4 4 4 3 3 3 3 3 3 2 2 2 2 2 1 1 1 -0 -1 -1 -2 -2 -2 -2 -3 -3 -4 -4 -5 -5 -5 -5 -5 -6
Wind_Speed
15 15 12 10 10 9 8 10 9 8 9 8 7 9 9 9 12 13 12 14 14 13 12 10 9 8 6 5 4 4 4 5 6 8 9 11 12 13
12 14 14 11 10 8 8 9 9 8 7 7 6 7 9 8 10 11 11 13 13 13 12 11 10 8 7 6 5 4 4 5 6 8 9 11 12 12
14 15 15 13 10 9 9 9 8 8 7 5 4 7 9 10 9 9 9 10 10 12 12 11 10 9 7 6 6 5 5 5 6 7 9 10 11 12
15 15 15 12 13 11 10 10 9 8 8 8 6 6 8 10 9 9 8 8 8 11 11 11 10 9 8 7 6 5 4 4 5 6 7 9 10 12
15 15 16 15 14 11 12 10 8 7 8 8 7 5 5 7 8 7 7 6 6 8 10 10 9 9 8 6 6 5 4 4 4 5 7 8 10 11
14 15 16 16 15 14 12 12 10 9 9 9 8 7 6 7 7 7 6 5 5 6 6 7 8 8 8 7 6 5 4 3 4 5 6 8 9 11
13 15 16 16 16 14 12 12 12 10 9 9 8 7 7 8 8 6 7 6 5 4 5 5 6 5 6 7 6 5 4 3 3 5 6 7 9 10
12 13 14 14 14 15 15 15 14 14 12 10 8 10 10 9 9 8 7 6 4 5 5 4 4 4 4 4 4 5 4 3 3 4 5 7 8 10
11 11 10 11 13 12 13 13 12 13 13 12 12 11 11 11 11 11 9 7 4 5 5 4 3 3 3 4 6 5 4 3 2 3 5 7 8 9
11 12 12 12 11 12 12 12 11 11 11 10 10 10 10 11 10 9 9 6 5 4 4 3 3 2 2 3 5 5 4 2 2 3 5 6 8 10
9 10 12 12 13 14 13 12 10 8 7 8 8 9 12 13 12 9 9 6 4 3 3 2 2 1 1 2 3 4 3 2 1 2 4 6 8 10
7 9 12 13 15 15 14 13 13 10 10 9 9 10 10 12 12 9 9 8 5 4 4 3 3 2 2 1 1 2 3 2 1 2 4 6 8 7
6 7 8 14 15 14 13 12 13 12 11 10 9 8 7 7 6 5 4 5 5 3 6 5 3 2 2 2 1 1 1 1 1 2 3 5 7 7
6 6 8 13 13 13 12 14 16 14 10 10 9 8 7 6 5 5 6 6 4 4 8 6 3 4 3 2 2 1 1 1 1 2 3 4 5 6
5 8 10 12 12 11 15 18 15 11 10 10 9 7 6 7 7 7 8 9 9 8 6 4 4 4 3 3 2 2 1 1 1 2 3 3 4 4
5 8 10 12 11 12 13 12 9 9 10 9 8 8 7 7 7 6 6 7 6 5 6 6 4 3 2 2 2 2 1 1 1 2 3 3 3 4
5 5 6 8 8 8 8 8 8 9 9 8 9 9 8 7 6 6 6 5 4 4 3 4 6 6 4 2 2 2 1 0 1 2 3 3 3 3
5 7 7 8 9 9 9 8 8 8 9 9 9 9 9 8 7 6 5 5 6 6 5 4 4 3 2 3 2 1 0 1 1 2 2 3 3 3
5 7 7 8 8 8 8 8 8 8 8 9 9 9 9 9 8 7 7 6 7 6 5 4 3 2 2 1 1 1 0 1 1 2 2 3 3 4
5 7 7 7 8 8 8 8 9 9 9 9 9 9 9 9 8 7 7 7 7 6 5 4 2 2 1 2 2 0 2 1 1 1 2 3 3 4
5 6 6 7 7 7 7 8 9 9 9 9 9 9 9 9 8 7 7 10 8 6 6 4 2 3 3 3 3 1 1 3 2 2 2 2 2 2
5 5 6 6 7 7 8 8 9 9 10 9 9 9 8 8 9 9 9 9 7 6 6 4 4 3 2 2 3 2 1 2 2 2 2 3 2 2
4 5 6 6 7 7 7 9 9 9 9 9 8 9 9 8 8 8 8 8 8 8 7 6 4 2 2 3 3 3 2 1 2 2 3 4 4 5
Wind_Direction
220 220 221 219 214 216 209 202 199 204 210 205 194 192 190 192 181 189 192 187 190 189 188 188 187 192 201 216 233 254 275 296 307 311 315 318 320 322
218 218 216 216 212 210 208 210 210 205 213 204 200 184 177 182 181 186 188 178 184 188 188 187 188 191 197 207 220 243 267 287 301 309 314 317 320 324
215 216 214 210 208 207 206 207 209 201 200 202 193 181 178 182 176 181 183 185 185 185 187 188 191 191 196 205 218 237 259 281 296 306 313 319 324 326
213 213 212 206 205 205 203 203 203 199 192 188 187 175 184 181 177 177 177 182 182 176 182 187 189 191 196 206 218 234 256 276 291 303 313 321 325 326
212 212 209 203 203 203 200 200 197 190 182 180 183 174 167 169 167 168 170 171 169 171 177 184 187 192 198 204 214 227 243 263 285 303 315 321 324 325
213 212 208 205 203 200 198 196 191 184 175 171 171 167 162 165 165 168 170 173 171 171 177 183 188 194 200 203 210 215 224 250 283 304 315 321 324 325
213 210 208 205 203 200 196 191 187 184 178 173 175 171 170 169 178 175 175 165 168 174 175 179 184 194 200 202 201 205 217 244 283 303 315 322 325 327
211 206 203 199 197 195 196 193 191 188 184 182 186 183 185 181 174 169 162 164 178 173 175 184 185 196 194 192 192 203 213 240 282 306 319 325 328 329
207 199 198 197 193 191 186 183 193 194 192 191 189 188 185 180 173 171 173 173 169 156 164 178 187 200 186 186 183 196 210 233 275 309 322 326 327 326
204 196 194 193 192 184 180 185 192 193 191 192 193 187 178 170 172 170 160 133 103 136 163 169 176 191 180 184 179 193 202 212 266 309 321 326 327 325
201 195 189 187 179 172 175 178 177 176 159 150 151 148 144 148 150 144 147 148 149 161 174 156 150 156 183 188 172 183 193 202 254 315 327 331 330 325
193 187 182 180 176 174 176 174 173 171 159 147 138 133 141 142 146 158 163 163 152 161 170 155 148 148 161 180 177 185 181 187 249 311 329 333 333 326
184 182 182 174 176 178 176 176 170 162 157 152 146 141 138 141 143 138 145 163 162 155 161 155 153 159 152 156 192 210 210 245 273 296 318 331 332 329
188 184 178 169 171 172 171 160 151 148 150 150 149 148 145 142 130 113 99 84 84 125 154 151 150 162 150 153 176 200 244 257 295 314 321 324 325 327
179 170 169 164 161 162 155 149 149 151 152 152 154 152 143 137 126 111 97 92 81 84 110 116 133 148 144 155 165 187 235 256 286 312 320 323 326 327
148 145 150 152 151 146 149 151 154 155 154 152 147 140 134 135 136 133 130 123 104 82 64 77 102 123 125 138 164 189 216 216 269 316 320 318 324 327
151 150 151 152 154 153 152 153 151 149 145 143 143 142 141 139 138 138 137 130 122 129 105 78 72 71 71 110 142 150 151 318 306 324 317 318 328 338
151 156 158 157 156 156 156 153 150 151 151 148 148 147 148 148 143 141 139 134 130 130 126 126 113 96 86 57 37 158 123 3 334 321 313 316 331 346
155 161 161 157 153 154 155 154 153 152 150 150 150 150 149 148 148 148 145 137 133 133 137 145 144 131 131 125 51 356 299 330 329 327 328 324 321 328
159 163 161 154 150 151 154 154 151 150 151 152 151 150 150 149 150 152 151 146 142 137 139 148 152 144 138 147 144 59 341 314 321 329 336 331 321 308
157 158 156 153 152 153 153 153 153 154 155 154 153 151 152 150 150 152 150 147 143 144 150 151 118 99 97 108 110 103 34 15 348 324 331 337 338 337
155 155 155 153 155 156 155 152 150 153 154 154 153 152 153 152 151 152 152 152 150 143 133 123 124 118 104 120 119 114 74 26 33 22 352 336 331 340
156 155 154 155 156 156 156 154 152 154 155 154 152 151 151 150 148 148 148 145 141 136 131 129 118 88 89 113 115 111 93 63 53 47 31 358 328 315
Height
1408 1412 1416 1419 1423 1426 1429 1433 1435 1438 1442 1445 1448 1451 1456 1459 1462 1466 1468 1471 1473 1475 1476 1477 1477 1477 1477 1477 1476 1475 1473 1471 1469 1467 1465 1462 1460 1457
1401 1405 1409 1412 1416 1419 1423 1427 1430 1433 1435 1438 1441 1445 1449 1454 1457 1460 1463 1466 1468 1470 1471 1472 1473 1473 1473 1473 1472 1471 1469 1467 1465 1463 1461 1458 1456 1453
1394 1398 1401 1406 1409 1413 1417 1421 1424 1427 1429 1432 1436 1440 1444 1449 1453 1455 1458 1461 1463 1465 1466 1467 1468 1469 1469 1468 1468 1467 1465 1463 1461 1459 1457 1454 1452 1449
1385 1390 1394 1399 1403 1407 1411 1414 1418 1421 1424 1427 1431 1435 1438 1443 1447 1450 1453 1456 1458 1460 1461 1463 1464 1464 1464 1464 1463 1462 1461 1459 1457 1455 1453 1450 1448 1445
1378 1382 1387 1392 1396 1401 1404 1408 1412 1416 1419 1423 1425 1430 1433 1438 1442 1445 1448 1451 1453 1455 1457 1458 1459 1459 1459 1459 1459 1458 1457 1455 1454 1452 1449 1447 1444 1441
1371 1375 1380 1385 1389 1393 1398 1402 1406 1410 1414 1417 1421 1425 1428 1432 1437 1440 1443 1446 1449 1451 1452 1453 1454 1455 1455 1455 1454 1454 1453 1451 1450 1448 1446 1443 1440 1437
1363 1367 1372 1377 1382 1387 1391 1395 1400 1404 1408 1412 1416 1419 1423 1427 1431 1434 1438 1441 1444 1446 1447 1448 1450 1450 1450 1450 1450 1449 1449 1448 1446 1444 1442 1439 1437 1434
1355 1359 1365 1370 1375 1380 1385 1389 1394 1399 1403 1407 1410 1414 1418 1422 1426 1429 1433 1436 1438 1441 1443 1444 1445 1446 1446 1446 1446 1446 1445 1444 1442 1440 1438 1436 1433 1430
1348 1352 1357 1363 1368 1374 1379 1384 1389 1394 1399 1402 1405 1408 1413 1417 1420 1424 1428 1431 1433 1435 1438 1440 1441 1442 1442 1442 1442 1442 1441 1440 1439 1437 1435 1433 1430 1427
1342 1346 1351 1356 1361 1367 1372 1378 1383 1388 1393 1397 1401 1405 1410 1413 1417 1420 1423 1426 1429 1432 1435 1436 1437 1438 1438 1438 1439 1438 1438 1437 1436 1434 1432 1429 1427 1424
1336 1341 1345 1350 1356 1361 1367 1372 1377 1383 1388 1393 1397 1401 1405 1409 1412 1416 1418 1422 1424 1427 1430 1431 1432 1434 1434 1435 1435 1435 1434 1434 1432 1431 1428 1426 1423 1421
1331 1335 1340 1345 1351 1357 1361 1366 1371 1376 1382 1387 1392 1397 1401 1404 1408 1411 1414 1417 1420 1423 1425 1427 1428 1430 1431 1431 1432 1432 1431 1430 1429 1428 1425 1423 1421 1418
1326 1331 1336 1342 1347 1352 1358 1362 1367 1372 1378 1383 1387 1392 1396 1400 1404 1408 1411 1414 1417 1418 1421 1423 1424 1426 1427 1427 1428 1429 1428 1427 1426 1424 1422 1420 1418 1416
1323 1327 1332 1338 1343 1348 1353 1358 1364 1369 1374 1379 1384 1388 1392 1396 1400 1404 1408 1411 1414 1416 1417 1419 1421 1422 1423 1424 1425 1425 1425 1425 1423 1422 1420 1418 1416 1414
1320 1325 1330 1335 1340 1345 1350 1356 1361 1366 1371 1375 1380 1384 1389 1393 1398 1401 1405 1408 1411 1413 1415 1416 1418 1419 1421 1421 1422 1422 1422 1422 1421 1419 1418 1416 1414 1412
1318 1322 1327 1332 1337 1343 1348 1353 1358 1363 1368 1372 1377 1382 1386 1391 1395 1398 1402 1405 1408 1410 1412 1414 1416 1417 1418 1419 1420 1420 1420 1419 1418 1417 1416 1415 1413 1410
1316 1321 1325 1330 1335 1340 1345 1350 1355 1360 1365 1370 1375 1379 1384 1388 1392 1396 1399 1402 1405 1407 1409 1411 1413 1415 1417 1418 1418 1418 1418 1418 1417 1416 1414 1413 1411 1409
1316 1319 1324 1328 1333 1338 1342 1347 1353 1358 1363 1368 1372 1377 1381 1385 1389 1393 1397 1399 1402 1404 1406 1408 1410 1413 1415 1416 1417 1416 1416 1416 1415 1414 1413 1412 1410 1409
1315 1319 1323 1327 1332 1336 1341 1346 1351 1356 1361 1366 1370 1375 1379 1383 1387 1390 1394 1397 1399 1402 1405 1407 1409 1410 1412 1413 1415 1415 1415 1414 1414 1413 1412 1411 1409 1408
1315 1319 1322 1326 1330 1335 1340 1345 1350 1354 1359 1364 1368 1372 1377 1380 1384 1388 1391 1394 1397 1400 1403 1405 1407 1409 1410 1412 1413 1413 1414 1413 1412 1412 1411 1410 1409 1408
1314 1318 1322 1326 1330 1334 1339 1343 1348 1352 1357 1362 1366 1370 1374 1378 1382 1386 1389 1392 1395 1398 1400 1403 1405 1408 1409 1411 1411 1412 1413 1412 1412 1411 1410 1409 1408 1407
1314 1318 1322 1326 1330 1334 1338 1342 1346 1351 1356 1360 1364 1368 1372 1376 1380 1384 1387 1390 1393 1396 1399 1402 1404 1406 1408 1409 1410 1410 1411 1412 1412 1411 1410 1410 1408 1406
1315 1318 1321 1325 1329 1333 1337 1341 1345 1349 1354 1358 1362 1366 1370 1374 1378 1382 1385 1388 1391 1394 1397 1400 1403 1405 1407 1408 1409 1410 1410 1411 1411 1411 1411 1410 1409 1408